SDT,��Ԑ��ʗ��i��Gy/h�j,�����ʗ��i��Gy/h),�~�J��i�����j,���J��,�����l�i��Gy/h�j,����l�i��Gy/h�j,�ߋ��̍ő�l�i��Gy/h�j
20120101010000,2.882,2.455,0.0,,0.036,0.057,0.101
20120101020000,2.882,2.453,0.0,,,,
20120101030000,2.882,2.453,0.0,,,,
20120101040000,2.88,2.452,0.0,,,,
20120101050000,2.88,2.452,0.0,,,,
20120101060000,2.88,2.449,0.0,,,,
20120101070000,2.879,2.449,0.0,,,,
20120101080000,2.88,2.45,0.0,,,,
20120101090000,2.883,2.453,0.0,,,,
20120101100000,2.888,2.456,0.0,,,,
20120101110000,2.895,2.462,0.0,,,,
20120101120000,2.897,2.467,0.0,,,,
20120101130000,2.899,2.468,0.0,,,,
20120101140000,2.9,2.472,0.0,,,,
20120101150000,2.901,2.473,0.0,,,,
20120101160000,2.901,2.47,0.0,,,,
20120101170000,2.897,2.468,0.0,,,,
20120101180000,2.894,2.467,0.0,,,,
20120101190000,2.892,2.465,0.0,,,,
20120101200000,2.892,2.463,0.0,,,,
20120101210000,2.89,2.464,0.0,,,,
20120101220000,2.889,2.462,0.0,,,,
20120101230000,2.887,2.46,0.0,,,,
20120102000000,2.888,2.459,0.0,,,,
20120102010000,2.887,2.457,0.0,,,,
20120102020000,2.886,2.459,0.0,,,,
20120102030000,2.886,2.456,0.0,,,,
20120102040000,2.885,2.457,0.0,,,,
20120102050000,2.883,2.456,0.0,,,,
20120102060000,2.884,2.454,0.0,,,,
20120102070000,2.885,2.456,0.0,,,,
20120102080000,2.887,2.457,0.0,,,,
20120102090000,2.892,2.46,0.0,,,,
20120102100000,2.894,2.463,0.0,,,,
20120102110000,2.9,2.466,0.0,,,,
20120102120000,2.904,2.47,0.0,,,,
20120102130000,2.907,2.476,0.0,,,,
20120102140000,2.906,2.478,0.0,,,,
20120102150000,2.906,2.478,0.0,,,,
20120102160000,2.903,2.48,0.0,,,,
20120102170000,2.901,2.477,0.0,,,,
20120102180000,2.902,2.473,0.0,,,,
20120102190000,2.899,2.473,0.0,,,,
20120102200000,2.898,2.472,0.0,,,,
20120102210000,2.898,2.472,0.0,,,,
20120102220000,2.896,2.468,0.0,,,,
20120102230000,2.897,2.468,0.0,,,,
20120103000000,2.896,2.47,0.0,,,,
20120103010000,2.897,2.471,0.0,,,,
20120103020000,2.897,2.468,0.0,,,,
20120103030000,2.896,2.468,0.0,,,,
20120103040000,2.895,2.466,0.0,,,,
20120103050000,2.893,2.465,0.0,,,,
20120103060000,2.888,2.461,0.0,,,,
20120103070000,2.887,2.46,0.0,,,,
20120103080000,2.888,2.457,0.0,,,,
20120103090000,2.893,2.461,0.0,,,,
20120103100000,2.898,2.467,0.0,,,,
20120103110000,2.901,2.468,0.0,,,,
20120103120000,2.901,2.469,0.0,,,,
20120103130000,2.903,2.473,0.0,,,,
20120103140000,2.902,2.472,0.0,,,,
20120103150000,2.903,2.476,0.0,,,,
20120103160000,2.9,2.474,0.0,,,,
20120103170000,2.898,2.473,0.0,,,,
20120103180000,2.898,2.47,0.0,,,,
20120103190000,2.898,2.469,0.0,,,,
20120103200000,2.898,2.47,0.0,,,,
20120103210000,2.896,2.47,0.0,,,,
20120103220000,2.895,2.468,0.0,,,,
20120103230000,2.896,2.47,0.0,,,,
20120104000000,2.895,2.467,0.0,,,,
20120104010000,2.898,2.469,0.0,,,,
20120104020000,2.899,2.47,0.0,,,,
20120104030000,2.898,2.469,0.0,,,,
20120104040000,2.897,2.469,0.0,,,,
20120104050000,2.896,2.468,0.0,,,,
20120104060000,2.896,2.468,0.0,,,,
20120104070000,2.896,2.467,0.0,,,,
20120104080000,2.894,2.466,0.0,,,,
20120104090000,2.898,2.468,0.0,,,,
20120104100000,2.903,2.475,0.0,,,,
20120104110000,2.903,2.474,0.0,,,,
20120104120000,2.902,2.471,0.0,,,,
20120104130000,2.9,2.473,0.0,,,,
20120104140000,2.9,2.475,0.0,,,,
20120104150000,2.903,2.475,0.0,,,,
20120104160000,2.899,2.475,0.0,,,,
20120104170000,2.9,2.474,0.0,,,,
20120104180000,2.899,2.474,0.0,,,,
20120104190000,2.9,2.47,0.0,,,,
20120104200000,2.898,2.473,0.0,,,,
20120104210000,2.897,2.471,0.0,,,,
20120104220000,2.896,2.47,0.0,,,,
20120104230000,2.895,2.468,0.0,,,,
20120105000000,2.895,2.467,0.0,,,,
20120105010000,2.895,2.464,0.0,,,,
20120105020000,2.89,2.461,0.0,,,,
20120105030000,2.887,2.461,0.0,,,,
20120105040000,2.89,2.462,0.0,,,,
20120105050000,2.891,2.462,0.0,,,,
20120105060000,2.888,2.458,0.0,,,,
20120105070000,2.886,2.457,0.0,,,,
20120105080000,2.888,2.46,0.0,,,,
20120105090000,2.893,2.46,0.0,,,,
20120105100000,2.896,2.466,0.0,,,,
20120105110000,2.899,2.466,0.0,,,,
20120105120000,2.902,2.471,0.0,,,,
20120105130000,2.901,2.472,0.0,,,,
20120105140000,2.901,2.47,0.0,,,,
20120105150000,2.902,2.473,0.0,,,,
20120105160000,2.899,2.474,0.0,,,,
20120105170000,2.896,2.469,0.0,,,,
20120105180000,2.894,2.467,0.0,,,,
20120105190000,2.891,2.464,0.0,,,,
20120105200000,2.891,2.464,0.0,,,,
20120105210000,2.888,2.461,0.0,,,,
20120105220000,2.89,2.461,0.0,,,,
20120105230000,2.887,2.461,0.0,,,,
20120106000000,2.886,2.457,0.0,,,,
20120106010000,2.888,2.456,0.0,,,,
20120106020000,2.89,2.459,0.0,,,,
20120106030000,2.89,2.459,0.0,,,,
20120106040000,2.89,2.459,0.0,,,,
20120106050000,2.885,2.453,0.0,,,,
20120106060000,2.883,2.452,0.0,,,,
20120106070000,2.881,2.449,0.0,,,,
20120106080000,2.881,2.45,0.0,,,,
20120106090000,2.886,2.454,0.0,,,,
20120106100000,2.892,2.461,0.0,,,,
20120106110000,2.895,2.462,0.0,,,,
20120106120000,2.895,2.463,0.0,,,,
20120106130000,2.897,2.465,0.0,,,,
20120106140000,2.897,2.467,0.0,,,,
20120106150000,2.897,2.468,0.0,,,,
20120106160000,2.895,2.465,0.0,,,,
20120106170000,2.896,2.466,0.0,,,,
20120106180000,2.893,2.462,0.0,,,,
20120106190000,2.893,2.467,0.0,,,,
20120106200000,2.891,2.463,0.0,,,,
20120106210000,2.892,2.464,0.0,,,,
20120106220000,2.894,2.465,0.0,,,,
20120106230000,2.892,2.464,0.0,,,,
20120107000000,2.891,2.462,0.0,,,,
20120107010000,2.888,2.462,0.0,,,,
20120107020000,2.886,2.46,0.0,,,,
20120107030000,2.887,2.46,0.0,,,,
20120107040000,2.885,2.456,0.0,,,,
20120107050000,2.882,2.453,0.0,,,,
20120107060000,2.885,2.452,0.0,,,,
20120107070000,2.883,2.452,0.0,,,,
20120107080000,2.88,2.45,0.0,,,,
20120107090000,2.886,2.454,0.0,,,,
20120107100000,2.889,2.46,0.0,,,,
20120107110000,2.896,2.462,0.0,,,,
20120107120000,2.896,2.464,0.0,,,,
20120107130000,2.897,2.467,0.0,,,,
20120107140000,2.896,2.468,0.0,,,,
20120107150000,2.895,2.467,0.0,,,,
20120107160000,2.894,2.463,0.0,,,,
20120107170000,2.891,2.463,0.0,,,,
20120107180000,2.89,2.46,0.0,,,,
20120107190000,2.888,2.46,0.0,,,,
20120107200000,2.885,2.457,0.0,,,,
20120107210000,2.883,2.456,0.0,,,,
20120107220000,2.882,2.451,0.0,,,,
20120107230000,2.881,2.454,0.0,,,,
20120108000000,2.879,2.449,0.0,,,,
20120108010000,2.879,2.449,0.0,,,,
20120108020000,2.878,2.447,0.0,,,,
20120108030000,2.875,2.444,0.0,,,,
20120108040000,2.874,2.446,0.0,,,,
20120108050000,2.874,2.443,0.0,,,,
20120108060000,2.873,2.44,0.0,,,,
20120108070000,2.872,2.44,0.0,,,,
20120108080000,2.872,2.44,0.0,,,,
20120108090000,2.878,2.446,0.0,,,,
20120108100000,2.885,2.45,0.0,,,,
20120108110000,2.888,2.453,0.0,,,,
20120108120000,2.892,2.457,0.0,,,,
20120108130000,2.892,2.46,0.0,,,,
20120108140000,2.892,2.459,0.0,,,,
20120108150000,2.892,2.462,0.0,,,,
20120108160000,2.891,2.46,0.0,,,,
20120108170000,2.887,2.457,0.0,,,,
20120108180000,2.883,2.454,0.0,,,,
20120108190000,2.88,2.451,0.0,,,,
20120108200000,2.879,2.45,0.0,,,,
20120108210000,2.881,2.451,0.0,,,,
20120108220000,2.878,2.447,0.0,,,,
20120108230000,2.878,2.446,0.0,,,,
20120109000000,2.878,2.446,0.0,,,,
20120109010000,2.878,2.446,0.0,,,,
20120109020000,2.88,2.447,0.0,,,,
20120109030000,2.878,2.447,0.0,,,,
20120109040000,2.879,2.446,0.0,,,,
20120109050000,2.878,2.448,0.0,,,,
20120109060000,2.879,2.444,0.0,,,,
20120109070000,2.878,2.444,0.0,,,,
20120109080000,2.876,2.446,0.0,,,,
20120109090000,2.88,2.451,0.0,,,,
20120109100000,2.887,2.455,0.0,,,,
20120109110000,2.889,2.454,0.0,,,,
20120109120000,2.891,2.459,0.0,,,,
20120109130000,2.894,2.462,0.0,,,,
20120109140000,2.891,2.462,0.0,,,,
20120109150000,2.893,2.463,0.0,,,,
20120109160000,2.891,2.462,0.0,,,,
20120109170000,2.889,2.461,0.0,,,,
20120109180000,2.885,2.457,0.0,,,,
20120109190000,2.887,2.458,0.0,,,,
20120109200000,2.887,2.455,0.0,,,,
20120109210000,2.887,2.456,0.0,,,,
20120109220000,2.887,2.456,0.0,,,,
20120109230000,2.886,2.455,0.0,,,,
20120110000000,2.887,2.458,0.0,,,,
20120110010000,2.887,2.459,0.0,,,,
20120110020000,2.882,2.454,0.0,,,,
20120110030000,2.88,2.452,0.0,,,,
20120110040000,2.884,2.45,0.0,,,,
20120110050000,2.882,2.452,0.0,,,,
20120110060000,2.882,2.449,0.0,,,,
20120110070000,2.88,2.45,0.0,,,,
20120110080000,2.879,2.449,0.0,,,,
20120110090000,2.883,2.452,0.0,,,,
20120110100000,2.887,2.456,0.0,,,,
20120110110000,2.891,2.459,0.0,,,,
20120110120000,2.891,2.46,0.0,,,,
20120110130000,2.895,2.463,0.0,,,,
20120110140000,2.895,2.465,0.0,,,,
20120110150000,2.894,2.468,0.0,,,,
20120110160000,2.893,2.464,0.0,,,,
20120110170000,2.891,2.463,0.0,,,,
20120110180000,2.885,2.459,0.0,,,,
20120110190000,2.886,2.457,0.0,,,,
20120110200000,2.886,2.46,0.0,,,,
20120110210000,2.888,2.457,0.0,,,,
20120110220000,2.886,2.457,0.0,,,,
20120110230000,2.884,2.458,0.0,,,,
20120111000000,2.884,2.455,0.0,,,,
20120111010000,2.883,2.455,0.0,,,,
20120111020000,2.884,2.457,0.0,,,,
20120111030000,2.885,2.456,0.0,,,,
20120111040000,2.886,2.458,0.0,,,,
20120111050000,2.888,2.457,0.0,,,,
20120111060000,2.886,2.458,0.0,,,,
20120111070000,2.871,2.445,0.5,,,,
20120111080000,2.836,2.415,1.0,,,,
20120111090000,2.798,2.379,0.5,,,,
20120111100000,2.771,2.354,0.0,,,,
20120111110000,2.761,2.345,0.0,,,,
20120111120000,2.769,2.351,0.0,,,,
20120111130000,2.79,2.37,0.0,,,,
20120111140000,2.817,2.395,0.5,,,,
20120111150000,2.832,2.411,0.0,,,,
20120111160000,2.838,2.415,0.0,,,,
20120111170000,2.839,2.415,0.0,,,,
20120111180000,2.839,2.417,0.0,,,,
20120111190000,2.841,2.418,0.0,,,,
20120111200000,2.84,2.418,0.0,,,,
20120111210000,2.842,2.416,0.0,,,,
20120111220000,2.84,2.415,0.0,,,,
20120111230000,2.839,2.413,0.0,,,,
20120112000000,2.839,2.412,0.0,,,,
20120112010000,2.837,2.412,0.0,,,,
20120112020000,2.836,2.41,0.0,,,,
20120112030000,2.833,2.407,0.0,,,,
20120112040000,2.831,2.406,0.0,,,,
20120112050000,2.83,2.405,0.0,,,,
20120112060000,2.83,2.402,0.0,,,,
20120112070000,2.829,2.402,0.0,,,,
20120112080000,2.829,2.4,0.0,,,,
20120112090000,2.834,2.404,0.0,,,,
20120112100000,2.84,2.407,0.0,,,,
20120112110000,2.843,2.412,0.0,,,,
20120112120000,2.848,2.416,0.0,,,,
20120112130000,2.851,2.422,0.0,,,,
20120112140000,2.857,2.427,0.0,,,,
20120112150000,2.858,2.431,0.0,,,,
20120112160000,2.859,2.435,0.0,,,,
20120112170000,2.854,2.43,0.0,,,,
20120112180000,2.852,2.427,0.0,,,,
20120112190000,2.851,2.426,0.0,,,,
20120112200000,2.848,2.424,0.0,,,,
20120112210000,2.848,2.425,0.0,,,,
20120112220000,2.849,2.421,0.0,,,,
20120112230000,2.849,2.421,0.0,,,,
20120113000000,2.851,2.423,0.0,,,,
20120113010000,2.854,2.424,0.0,,,,
20120113020000,2.854,2.424,0.0,,,,
20120113030000,2.855,2.428,0.0,,,,
20120113040000,2.852,2.424,0.0,,,,
20120113050000,2.85,2.423,0.0,,,,
20120113060000,2.849,2.42,0.0,,,,
20120113070000,2.849,2.421,0.0,,,,
20120113080000,2.849,2.42,0.0,,,,
20120113090000,2.854,2.423,0.0,,,,
20120113100000,2.861,2.429,0.0,,,,
20120113110000,2.864,2.432,0.0,,,,
20120113120000,2.868,2.436,0.0,,,,
20120113130000,2.87,2.439,0.0,,,,
20120113140000,2.873,2.443,0.0,,,,
20120113150000,2.875,2.445,0.0,,,,
20120113160000,2.872,2.445,0.0,,,,
20120113170000,2.867,2.442,0.0,,,,
20120113180000,2.86,2.436,0.0,,,,
20120113190000,2.851,2.428,0.0,,,,
20120113200000,2.849,2.426,0.0,,,,
20120113210000,2.845,2.421,0.0,,,,
20120113220000,2.845,2.42,0.0,,,,
20120113230000,2.845,2.423,0.0,,,,
20120114000000,2.849,2.421,0.0,,,,
20120114010000,2.851,2.424,0.0,,,,
20120114020000,2.852,2.426,0.0,,,,
20120114030000,2.851,2.427,0.0,,,,
20120114040000,2.852,2.427,0.0,,,,
20120114050000,2.853,2.427,0.0,,,,
20120114060000,2.851,2.426,0.0,,,,
20120114070000,2.852,2.422,0.0,,,,
20120114080000,2.85,2.423,0.0,,,,
20120114090000,2.853,2.427,0.0,,,,
20120114100000,2.856,2.428,0.0,,,,
20120114110000,2.86,2.432,0.0,,,,
20120114120000,2.865,2.438,0.0,,,,
20120114130000,2.869,2.438,0.0,,,,
20120114140000,2.87,2.441,0.0,,,,
20120114150000,2.87,2.444,0.0,,,,
20120114160000,2.871,2.444,0.0,,,,
20120114170000,2.868,2.441,0.0,,,,
20120114180000,2.865,2.437,0.0,,,,
20120114190000,2.864,2.435,0.0,,,,
20120114200000,2.861,2.435,0.0,,,,
20120114210000,2.862,2.435,0.0,,,,
20120114220000,2.861,2.434,0.0,,,,
20120114230000,2.861,2.432,0.0,,,,
20120115000000,2.858,2.431,0.0,,,,
20120115010000,2.86,2.431,0.0,,,,
20120115020000,2.86,2.433,0.0,,,,
20120115030000,2.861,2.432,0.0,,,,
20120115040000,2.861,2.433,0.0,,,,
20120115050000,2.86,2.431,0.0,,,,
20120115060000,2.861,2.432,0.0,,,,
20120115070000,2.86,2.431,0.0,,,,
20120115080000,2.859,2.43,0.0,,,,
20120115090000,2.86,2.433,0.0,,,,
20120115100000,2.865,2.435,0.0,,,,
20120115110000,2.866,2.437,0.0,,,,
20120115120000,2.871,2.438,0.0,,,,
20120115130000,2.874,2.443,0.0,,,,
20120115140000,2.873,2.446,0.0,,,,
20120115150000,2.874,2.446,0.0,,,,
20120115160000,2.873,2.446,0.0,,,,
20120115170000,2.871,2.444,0.0,,,,
20120115180000,2.871,2.442,0.0,,,,
20120115190000,2.867,2.438,0.0,,,,
20120115200000,2.867,2.438,0.0,,,,
20120115210000,2.867,2.437,0.0,,,,
20120115220000,2.864,2.436,0.0,,,,
20120115230000,2.863,2.433,0.0,,,,
20120116000000,2.861,2.433,0.0,,,,
20120116010000,2.861,2.434,0.0,,,,
20120116020000,2.86,2.431,0.0,,,,
20120116030000,2.859,2.43,0.0,,,,
20120116040000,2.859,2.43,0.0,,,,
20120116050000,2.857,2.43,0.0,,,,
20120116060000,2.858,2.43,0.0,,,,
20120116070000,2.859,2.43,0.0,,,,
20120116080000,2.86,2.428,0.0,,,,
20120116090000,2.863,2.431,0.0,,,,
20120116100000,2.865,2.433,0.0,,,,
20120116110000,2.867,2.436,0.0,,,,
20120116120000,2.871,2.438,0.0,,,,
20120116130000,2.873,2.442,0.0,,,,
20120116140000,2.869,2.439,0.0,,,,
20120116150000,2.873,2.442,0.0,,,,
20120116160000,2.873,2.442,0.0,,,,
20120116170000,2.871,2.44,0.0,,,,
20120116180000,2.87,2.439,0.0,,,,
20120116190000,2.868,2.44,0.0,,,,
20120116200000,2.866,2.435,0.0,,,,
20120116210000,2.866,2.434,0.0,,,,
20120116220000,2.865,2.433,0.0,,,,
20120116230000,2.864,2.434,0.0,,,,
20120117000000,2.866,2.436,0.0,,,,
20120117010000,2.863,2.433,0.0,,,,
20120117020000,2.863,2.433,0.0,,,,
20120117030000,2.862,2.43,0.0,,,,
20120117040000,2.859,2.432,0.0,,,,
20120117050000,2.859,2.43,0.0,,,,
20120117060000,2.859,2.431,0.0,,,,
20120117070000,2.859,2.428,0.0,,,,
20120117080000,2.858,2.429,0.0,,,,
20120117090000,2.861,2.43,0.0,,,,
20120117100000,2.867,2.435,0.0,,,,
20120117110000,2.869,2.437,0.0,,,,
20120117120000,2.871,2.438,0.0,,,,
20120117130000,2.872,2.441,0.0,,,,
20120117140000,2.872,2.442,0.0,,,,
20120117150000,2.867,2.439,0.0,,,,
20120117160000,2.87,2.44,0.0,,,,
20120117170000,2.865,2.438,0.0,,,,
20120117180000,2.865,2.434,0.0,,,,
20120117190000,2.863,2.434,0.0,,,,
20120117200000,2.86,2.432,0.0,,,,
20120117210000,2.859,2.43,0.0,,,,
20120117220000,2.858,2.429,0.0,,,,
20120117230000,2.857,2.427,0.0,,,,
20120118000000,2.858,2.427,0.0,,,,
20120118010000,2.856,2.427,0.0,,,,
20120118020000,2.856,2.425,0.0,,,,
20120118030000,2.856,2.424,0.0,,,,
20120118040000,2.857,2.428,0.0,,,,
20120118050000,2.86,2.428,0.0,,,,
20120118060000,2.859,2.427,0.0,,,,
20120118070000,2.858,2.426,0.0,,,,
20120118080000,2.856,2.424,0.0,,,,
20120118090000,2.86,2.426,0.0,,,,
20120118100000,2.867,2.431,0.0,,,,
20120118110000,2.869,2.436,0.0,,,,
20120118120000,2.872,2.44,0.0,,,,
20120118130000,2.875,2.44,0.0,,,,
20120118140000,2.875,2.444,0.0,,,,
20120118150000,2.873,2.444,0.0,,,,
20120118160000,2.872,2.446,0.0,,,,
20120118170000,2.872,2.445,0.0,,,,
20120118180000,2.868,2.442,0.0,,,,
20120118190000,2.863,2.438,0.0,,,,
20120118200000,2.864,2.439,0.0,,,,
20120118210000,2.864,2.435,0.0,,,,
20120118220000,2.864,2.436,0.0,,,,
20120118230000,2.863,2.436,0.0,,,,
20120119000000,2.866,2.436,0.0,,,,
20120119010000,2.869,2.436,0.0,,,,
20120119020000,2.868,2.439,0.0,,,,
20120119030000,2.864,2.434,0.0,,,,
20120119040000,2.863,2.433,0.0,,,,
20120119050000,2.861,2.433,0.0,,,,
20120119060000,2.859,2.429,0.0,,,,
20120119070000,2.859,2.429,0.0,,,,
20120119080000,2.86,2.43,0.0,,,,
20120119090000,2.864,2.433,0.0,,,,
20120119100000,2.868,2.437,0.0,,,,
20120119110000,2.872,2.439,0.0,,,,
20120119120000,2.869,2.441,0.0,,,,
20120119130000,2.87,2.443,0.0,,,,
20120119140000,2.872,2.444,0.0,,,,
20120119150000,2.872,2.444,0.0,,,,
20120119160000,2.869,2.44,0.0,,,,
20120119170000,2.868,2.441,0.0,,,,
20120119180000,2.867,2.441,0.0,,,,
20120119190000,2.866,2.44,0.0,,,,
20120119200000,2.866,2.437,0.0,,,,
20120119210000,2.865,2.436,0.0,,,,
20120119220000,2.865,2.438,0.0,,,,
20120119230000,2.864,2.436,0.0,,,,
20120120000000,2.86,2.434,0.0,,,,
20120120010000,2.859,2.43,0.0,,,,
20120120020000,2.859,2.432,0.0,,,,
20120120030000,2.859,2.433,0.0,,,,
20120120040000,2.859,2.433,0.0,,,,
20120120050000,2.861,2.431,0.0,,,,
20120120060000,2.86,2.433,0.0,,,,
20120120070000,2.864,2.434,0.0,,,,
20120120080000,2.862,2.434,0.0,,,,
20120120090000,2.863,2.434,0.0,,,,
20120120100000,2.864,2.435,0.0,,,,
20120120110000,2.864,2.435,0.0,,,,
20120120120000,2.859,2.433,0.0,,,,
20120120130000,2.855,2.431,0.5,,,,
20120120140000,2.845,2.421,0.0,,,,
20120120150000,2.844,2.42,0.0,,,,
20120120160000,2.845,2.421,0.0,,,,
20120120170000,2.847,2.419,0.0,,,,
20120120180000,2.848,2.421,0.5,,,,
20120120190000,2.849,2.421,0.0,,,,
20120120200000,2.848,2.424,0.0,,,,
20120120210000,2.85,2.423,0.0,,,,
20120120220000,2.852,2.423,0.0,,,,
20120120230000,2.853,2.424,0.0,,,,
20120121000000,2.852,2.425,0.0,,,,
20120121010000,2.85,2.422,0.0,,,,
20120121020000,2.85,2.423,0.0,,,,
20120121030000,2.846,2.419,0.0,,,,
20120121040000,2.84,2.414,0.0,,,,
20120121050000,2.839,2.414,0.0,,,,
20120121060000,2.839,2.413,0.5,,,,
20120121070000,2.835,2.41,0.0,,,,
20120121080000,2.819,2.395,0.5,,,,
20120121090000,2.809,2.386,0.0,,,,
20120121100000,2.812,2.387,0.5,,,,
20120121110000,2.818,2.394,0.0,,,,
20120121120000,2.815,2.389,0.5,,,,
20120121130000,2.816,2.391,0.0,,,,
20120121140000,2.815,2.389,0.0,,,,
20120121150000,2.808,2.385,1.0,,,,
20120121160000,2.806,2.384,0.0,,,,
20120121170000,2.801,2.379,0.5,,,,
20120121180000,2.794,2.374,0.5,,,,
20120121190000,2.787,2.368,1.0,,,,
20120121200000,2.777,2.358,1.5,,,,
20120121210000,2.754,2.339,1.5,,,,
20120121220000,2.716,2.304,2.0,,,,
20120121230000,2.66,2.256,2.5,,,,
20120122000000,2.591,2.197,4.0,,,,
20120122010000,2.512,2.127,3.5,,,,
20120122020000,2.431,2.056,4.5,,,,
20120122030000,2.349,1.989,3.0,,,,
20120122040000,2.316,1.958,4.5,,,,
20120122050000,2.285,1.925,2.0,,,,
20120122060000,2.315,1.946,0.0,,,,
20120122070000,2.341,1.969,0.5,,,,
20120122080000,2.364,1.987,0.0,,,,
20120122090000,2.387,2.014,1.0,,,,
20120122100000,2.413,2.039,0.5,,,,
20120122110000,2.437,2.059,0.0,,,,
20120122120000,2.461,2.082,0.0,,,,
20120122130000,2.486,2.104,0.0,,,,
20120122140000,2.504,2.121,0.0,,,,
20120122150000,2.526,2.142,0.0,,,,
20120122160000,2.549,2.159,0.0,,,,
20120122170000,2.567,2.176,0.0,,,,
20120122180000,2.578,2.187,0.0,,,,
20120122190000,2.586,2.191,0.0,,,,
20120122200000,2.588,2.193,0.0,,,,
20120122210000,2.591,2.197,0.0,,,,
20120122220000,2.594,2.2,0.0,,,,
20120122230000,2.595,2.198,0.0,,,,
20120123000000,2.6,2.202,0.0,,,,
20120123010000,2.601,2.206,0.0,,,,
20120123020000,2.606,2.209,0.0,,,,
20120123030000,2.609,2.211,0.0,,,,
20120123040000,2.612,2.216,0.0,,,,
20120123050000,2.615,2.218,0.0,,,,
20120123060000,2.62,2.223,0.0,,,,
20120123070000,2.622,2.223,0.0,,,,
20120123080000,2.626,2.229,0.0,,,,
20120123090000,2.632,2.231,0.0,,,,
20120123100000,2.637,2.238,0.0,,,,
20120123110000,2.653,2.251,0.0,,,,
20120123120000,2.671,2.266,0.0,,,,
20120123130000,2.687,2.279,0.0,,,,
20120123140000,2.704,2.293,0.0,,,,
20120123150000,2.714,2.305,0.0,,,,
20120123160000,2.722,2.31,0.0,,,,
20120123170000,2.727,2.316,0.0,,,,
20120123180000,2.73,2.317,0.0,,,,
20120123190000,2.731,2.319,0.0,,,,
20120123200000,2.731,2.321,0.0,,,,
20120123210000,2.732,2.319,0.0,,,,
20120123220000,2.733,2.319,0.0,,,,
20120123230000,2.734,2.32,0.0,,,,
20120124000000,2.733,2.318,0.0,,,,
20120124010000,2.734,2.319,0.0,,,,
20120124020000,2.733,2.321,0.0,,,,
20120124030000,2.733,2.32,0.0,,,,
20120124040000,2.73,2.316,0.0,,,,
20120124050000,2.729,2.314,0.0,,,,
20120124060000,2.727,2.315,0.0,,,,
20120124070000,2.726,2.312,0.0,,,,
20120124080000,2.725,2.308,0.0,,,,
20120124090000,2.729,2.312,0.0,,,,
20120124100000,2.733,2.316,0.0,,,,
20120124110000,2.74,2.322,0.0,,,,
20120124120000,2.748,2.33,0.0,,,,
20120124130000,2.752,2.335,0.0,,,,
20120124140000,2.759,2.341,0.0,,,,
20120124150000,2.76,2.343,0.0,,,,
20120124160000,2.764,2.346,0.0,,,,
20120124170000,2.764,2.348,0.0,,,,
20120124180000,2.762,2.345,0.0,,,,
20120124190000,2.762,2.342,0.0,,,,
20120124200000,2.761,2.341,0.0,,,,
20120124210000,2.76,2.342,0.0,,,,
20120124220000,2.761,2.342,0.0,,,,
20120124230000,2.759,2.341,0.0,,,,
20120125000000,2.762,2.342,0.0,,,,
20120125010000,2.762,2.341,0.0,,,,
20120125020000,2.762,2.341,0.0,,,,
20120125030000,2.758,2.34,0.0,,,,
20120125040000,2.759,2.339,0.0,,,,
20120125050000,2.758,2.339,0.0,,,,
20120125060000,2.757,2.339,0.0,,,,
20120125070000,2.756,2.338,0.0,,,,
20120125080000,2.755,2.334,0.0,,,,
20120125090000,2.755,2.336,0.0,,,,
20120125100000,2.76,2.341,0.0,,,,
20120125110000,2.766,2.344,0.0,,,,
20120125120000,2.771,2.347,0.0,,,,
20120125130000,2.78,2.358,0.0,,,,
20120125140000,2.784,2.363,0.0,,,,
20120125150000,2.788,2.369,0.0,,,,
20120125160000,2.79,2.369,0.0,,,,
20120125170000,2.791,2.368,0.0,,,,
20120125180000,2.788,2.368,0.0,,,,
20120125190000,2.788,2.367,0.0,,,,
20120125200000,2.788,2.365,0.0,,,,
20120125210000,2.785,2.364,0.0,,,,
20120125220000,2.785,2.362,0.0,,,,
20120125230000,2.786,2.362,0.0,,,,
20120126000000,2.785,2.362,0.0,,,,
20120126010000,2.785,2.361,0.0,,,,
20120126020000,2.783,2.36,0.0,,,,
20120126030000,2.784,2.361,0.0,,,,
20120126040000,2.783,2.359,0.0,,,,
20120126050000,2.78,2.359,0.0,,,,
20120126060000,2.778,2.353,0.0,,,,
20120126070000,2.778,2.354,0.0,,,,
20120126080000,2.778,2.353,0.0,,,,
20120126090000,2.78,2.356,0.0,,,,
20120126100000,2.783,2.359,0.0,,,,
20120126110000,2.786,2.361,0.0,,,,
20120126120000,2.787,2.363,0.0,,,,
20120126130000,2.792,2.367,0.0,,,,
20120126140000,2.793,2.367,0.0,,,,
20120126150000,2.795,2.371,0.0,,,,
20120126160000,2.794,2.371,0.0,,,,
20120126170000,2.792,2.368,0.0,,,,
20120126180000,2.79,2.366,0.0,,,,
20120126190000,2.79,2.363,0.0,,,,
20120126200000,2.787,2.362,0.0,,,,
20120126210000,2.783,2.358,0.0,,,,
20120126220000,2.782,2.356,0.0,,,,
20120126230000,2.78,2.355,0.0,,,,
20120127000000,2.781,2.354,0.0,,,,
20120127010000,2.778,2.354,0.0,,,,
20120127020000,2.783,2.357,0.0,,,,
20120127030000,2.782,2.356,0.0,,,,
20120127040000,2.783,2.356,0.0,,,,
20120127050000,2.782,2.359,0.0,,,,
20120127060000,2.781,2.354,0.0,,,,
20120127070000,2.78,2.352,0.0,,,,
20120127080000,2.782,2.352,0.0,,,,
20120127090000,2.784,2.357,0.0,,,,
20120127100000,2.786,2.36,0.0,,,,
20120127110000,2.789,2.361,0.0,,,,
20120127120000,2.792,2.364,0.0,,,,
20120127130000,2.794,2.366,0.0,,,,
20120127140000,2.796,2.37,0.0,,,,
20120127150000,2.798,2.372,0.0,,,,
20120127160000,2.799,2.373,0.0,,,,
20120127170000,2.798,2.373,0.0,,,,
20120127180000,2.796,2.371,0.0,,,,
20120127190000,2.796,2.371,0.0,,,,
20120127200000,2.795,2.368,0.0,,,,
20120127210000,2.793,2.368,0.0,,,,
20120127220000,2.793,2.366,0.0,,,,
20120127230000,2.793,2.367,0.0,,,,
20120128000000,2.791,2.364,0.0,,,,
20120128010000,2.793,2.368,0.0,,,,
20120128020000,2.792,2.366,0.0,,,,
20120128030000,2.792,2.365,0.0,,,,
20120128040000,2.79,2.362,0.0,,,,
20120128050000,2.788,2.359,0.0,,,,
20120128060000,2.786,2.36,0.0,,,,
20120128070000,2.783,2.357,0.0,,,,
20120128080000,2.785,2.357,0.0,,,,
20120128090000,2.789,2.361,0.0,,,,
20120128100000,2.792,2.363,0.0,,,,
20120128110000,2.795,2.366,0.0,,,,
20120128120000,2.799,2.37,0.0,,,,
20120128130000,2.802,2.374,0.0,,,,
20120128140000,2.804,2.378,0.0,,,,
20120128150000,2.804,2.378,0.0,,,,
20120128160000,2.801,2.377,0.0,,,,
20120128170000,2.802,2.375,0.0,,,,
20120128180000,2.802,2.375,0.0,,,,
20120128190000,2.798,2.372,0.0,,,,